Overview Statistics Trail Chart Weather Telemetry Raw packets
 

This is the latest recevied weather packets stored in our database for station/object WC4PEM-4. If no packets are shown the sender has not sent any weather packets the latest 10 day(s).

<< 108 109 110 111 112 113 114 >>
Time Temp. Humidity Pressure Rain* Wind** Luminosity Snow
1788030386 35° C 53% 1016.4 hPa 0 mm - - -
1788030086 34.44° C 53% 1016.4 hPa 0 mm - - -
1788029786 35° C 52% 1016.4 hPa 0 mm - - -
1788029580 35° C 53% 1016.4 hPa 0 mm - - -
1788029486 35° C 53% 1016.4 hPa 0 mm - - -
1788029322 34.44° C 57% 1016.5 hPa 0 mm - - -
1788029186 34.44° C 57% 1016.5 hPa 0 mm - - -
1788029042 33.89° C 56% 1016.6 hPa 0 mm - - -
1788028886 33.89° C 56% 1016.6 hPa 0 mm - - -
1788028586 33.89° C 56% 1016.5 hPa 0 mm - - -
1788028286 33.89° C 53% 1016.5 hPa 0 mm - - -
1788027986 33.89° C 56% 1016.7 hPa 0 mm - - -
1788027686 33.89° C 56% 1016.8 hPa 0 mm - - -
1788027386 33.89° C 57% 1016.9 hPa 0 mm - - -
1788027086 33.89° C 51% 1017 hPa 0 mm - - -
1788026786 33.89° C 55% 1017.1 hPa 0 mm - - -
1788026486 33.89° C 53% 1017.1 hPa 0 mm - - -
1788026186 33.89° C 55% 1017.3 hPa 0 mm - - -
1788025886 33.89° C 58% 1017.5 hPa 0 mm - - -
1788025586 33.33° C 57% 1017.6 hPa 0 mm - - -
1788025286 33.33° C 57% 1017.6 hPa 0 mm - - -
1788025202 32.78° C 59% 1017.7 hPa 0 mm - - -
1788025148 32.78° C 59% 1017.7 hPa 0 mm - - -
1788024986 32.78° C 59% 1017.7 hPa 0 mm - - -
1788024686 32.22° C 59% 1017.8 hPa 0 mm - - -

* Rain latest hour (hover to see other rain measurements)
** Current wind speed in m/s (hover to see current wind gust speed)